Tracking 27188 objects as of 1-Apr-2023
HD Live streaming from Space Station
objects crossing your sky now

AMOS 17

Track AMOS 17 now!
AMOS 17 is classified as:


NORAD ID: 44479
Int'l Code: 2019-050A
Perigee: 35,786.6 km
Apogee: 35,800.3 km
Inclination: 0.0 °
Period: 1,436.1 minutes
Semi major axis: 42164 km
RCS: Unknown
Launch date: August 6, 2019
Source: Israel (ISRA)
Launch site: AIR FORCE EASTERN TEST RANGE (AFETR)
Your satellite tracking list
Your tracking list is empty




NASA's NSSDC Master Catalog

Two Line Element Set (TLE):
1 44479U 19050A   23091.26647017  .00000104  00000-0  00000+0 0  9995
2 44479   0.0164 153.9973 0001624 211.2796 296.9854  1.00272738 13422
Source of the keplerian elements: AFSPC